,,,PA_Meas_PMT16A,,PR_Meas_QMR101_102,,RH_Meas_QMH101,,SR_Meas_QMS101,,TA_Meas_QMH101,,GenWind,,GenWind,
date,time,status,PA,status,PR,status,RH,status,SR,status,TA,status,DirAvg,status,SpdAvg,
2010-08-01, 00:00:04,VALID,1011.71,VALID,0,VALID,102.391,VALID,0,VALID,23.8694,VALID,66,VALID,0.829297,
2010-08-01, 00:01:04,VALID,1011.69,VALID,0,VALID,102.383,VALID,0,VALID,23.8694,VALID,97,VALID,0.702344,
2010-08-01, 00:02:04,VALID,1011.69,VALID,0,VALID,102.399,VALID,0,VALID,23.8694,VALID,104,VALID,0.704297,
2010-08-01, 00:03:04,VALID,1011.69,VALID,0,VALID,102.399,VALID,0,VALID,23.9102,VALID,79,VALID,0.784766,
2010-08-01, 00:04:04,VALID,1011.69,VALID,0,VALID,102.399,VALID,0,VALID,23.9084,VALID,88,VALID,1.06641,
2010-08-01, 00:05:04,VALID,1011.72,VALID,0,VALID,102.391,VALID,0.105969,VALID,23.9065,VALID,90,VALID,0.967188,
2010-08-01, 00:06:04,VALID,1011.7,VALID,0,VALID,102.376,VALID,0.105969,VALID,23.9065,VALID,88,VALID,0.899219,
2010-08-01, 00:07:04,VALID,1011.71,VALID,0,VALID,102.338,VALID,0.105969,VALID,23.9065,VALID,87,VALID,1.2168,
2010-08-01, 00:08:04,VALID,1011.71,VALID,0,VALID,102.368,VALID,0.105969,VALID,23.9065,VALID,85,VALID,1.01055,
2010-08-01, 00:09:04,VALID,1011.71,VALID,0,VALID,102.345,VALID,0.105969,VALID,23.8871,VALID,81,VALID,1.25977,
2010-08-01, 00:10:04,VALID,1011.72,VALID,0,VALID,102.345,VALID,0.105969,VALID,23.8871,VALID,70,VALID,1.19062,
2010-08-01, 00:11:04,VALID,1011.73,VALID,0,VALID,102.338,VALID,0.105969,VALID,23.8889,VALID,88,VALID,0.927734,
2010-08-01, 00:12:04,VALID,1011.72,VALID,0,VALID,102.376,VALID,0,VALID,23.8676,VALID,84,VALID,0.930859,
2010-08-01, 00:13:04,VALID,1011.73,VALID,0,VALID,102.391,VALID,0,VALID,23.8676,VALID,93,VALID,0.647266,
2010-08-01, 00:14:04,VALID,1011.73,VALID,0,VALID,102.437,VALID,0,VALID,23.8889,VALID,78,VALID,1.22422,
2010-08-01, 00:15:04,VALID,1011.74,VALID,0,VALID,102.444,VALID,0.105969,VALID,23.8481,VALID,91,VALID,0.350391,
2010-08-01, 00:16:04,VALID,1011.76,VALID,0,VALID,102.482,VALID,0,VALID,23.8676,VALID,86,VALID,0.683594,
2010-08-01, 00:17:04,VALID,1011.76,VALID,0,VALID,102.49,VALID,0.105969,VALID,23.8481,VALID,104,VALID,0.591797,
2010-08-01, 00:18:04,VALID,1011.77,VALID,0,VALID,102.513,VALID,0.105969,VALID,23.8481,VALID,66,VALID,0.596875,
2010-08-01, 00:19:04,VALID,1011.75,VALID,0,VALID,102.498,VALID,0,VALID,23.8286,VALID,88,VALID,1.06992,
2010-08-01, 00:20:04,VALID,1011.77,VALID,0,VALID,102.521,VALID,0,VALID,23.8286,VALID,95,VALID,0.889453,
2010-08-01, 00:21:04,VALID,1011.77,VALID,0,VALID,102.544,VALID,0,VALID,23.8712,VALID,71,VALID,1.08281,
2010-08-01, 00:22:04,VALID,1011.78,VALID,0,VALID,102.528,VALID,0,VALID,23.8499,VALID,87,VALID,1.30547,
2010-08-01, 00:23:04,VALID,1011.81,VALID,0,VALID,102.551,VALID,0,VALID,23.8304,VALID,90,VALID,1.20703,
2010-08-01, 00:24:04,VALID,1011.79,VALID,0,VALID,102.559,VALID,0,VALID,23.8517,VALID,88,VALID,0.964063,
2010-08-01, 00:25:04,VALID,1011.81,VALID,0,VALID,102.566,VALID,0,VALID,23.8517,VALID,63,VALID,1.1082,
2010-08-01, 00:26:04,VALID,1011.81,VALID,0,VALID,102.582,VALID,0,VALID,23.8322,VALID,82,VALID,1.16953,
2010-08-01, 00:27:04,VALID,1011.82,VALID,0,VALID,102.597,VALID,0,VALID,23.8304,VALID,78,VALID,0.794922,
2010-08-01, 00:28:04,VALID,1011.84,VALID,0,VALID,102.605,VALID,0,VALID,23.8304,VALID,80,VALID,0.869141,
2010-08-01, 00:29:04,VALID,1011.84,VALID,0,VALID,102.612,VALID,0,VALID,23.8304,VALID,93,VALID,0.985156,
2010-08-01, 00:30:04,VALID,1011.85,VALID,0,VALID,102.643,VALID,0,VALID,23.8499,VALID,110,VALID,0.589844,
2010-08-01, 00:31:04,VALID,1011.82,VALID,0,VALID,102.666,VALID,0,VALID,23.8694,VALID,86,VALID,0.787109,
2010-08-01, 00:32:04,VALID,1011.8,VALID,0,VALID,102.666,VALID,0,VALID,23.8499,VALID,96,VALID,0.541406,
2010-08-01, 00:33:04,VALID,1011.8,VALID,0,VALID,102.688,VALID,0,VALID,23.8499,VALID,96,VALID,0.649609,
2010-08-01, 00:34:04,VALID,1011.78,VALID,0,VALID,102.658,VALID,0,VALID,23.8694,VALID,75,VALID,1.0875,
2010-08-01, 00:35:04,VALID,1011.81,VALID,0,VALID,102.658,VALID,0.105969,VALID,23.8676,VALID,86,VALID,0.602344,
2010-08-01, 00:36:04,VALID,1011.8,VALID,0,VALID,102.666,VALID,0,VALID,23.8676,VALID,65,VALID,0.837891,
2010-08-01, 00:37:04,VALID,1011.82,VALID,0,VALID,102.658,VALID,0.105969,VALID,23.8481,VALID,66,VALID,0.933594,
2010-08-01, 00:38:04,VALID,1011.82,VALID,0,VALID,102.643,VALID,0,VALID,23.8481,VALID,74,VALID,0.798828,
2010-08-01, 00:39:04,VALID,1011.84,VALID,0,VALID,102.635,VALID,0.105969,VALID,23.8676,VALID,70,VALID,0.725391,
2010-08-01, 00:40:04,VALID,1011.86,VALID,0,VALID,102.65,VALID,0.105969,VALID,23.8676,VALID,82,VALID,0.643359,
2010-08-01, 00:41:04,VALID,1011.84,VALID,0,VALID,102.658,VALID,0.105969,VALID,23.8871,VALID,87,VALID,0.203906,
2010-08-01, 00:42:04,VALID,1011.86,VALID,0,VALID,102.688,VALID,0.105969,VALID,23.8676,VALID,89,VALID,0.789453,
2010-08-01, 00:43:04,VALID,1011.86,VALID,0,VALID,102.681,VALID,0.105969,VALID,23.8871,VALID,109,VALID,0.579297,
2010-08-01, 00:44:04,VALID,1011.85,VALID,0,VALID,102.681,VALID,0.105969,VALID,23.8871,VALID,64,VALID,0.804688,
2010-08-01, 00:45:04,VALID,1011.88,VALID,0,VALID,102.681,VALID,0.105969,VALID,23.8871,VALID,95,VALID,1.16992,
2010-08-01, 00:46:04,VALID,1011.88,VALID,0,VALID,102.627,VALID,0,VALID,23.8871,VALID,108,VALID,0.282422,
2010-08-01, 00:47:04,VALID,1011.88,VALID,0,VALID,102.643,VALID,0.105969,VALID,23.9065,VALID,74,VALID,0.56875,
2010-08-01, 00:48:04,VALID,1011.86,VALID,0,VALID,102.643,VALID,0.105969,VALID,23.9065,VALID,90,VALID,0.466797,
2010-08-01, 00:49:04,VALID,1011.86,VALID,0,VALID,102.643,VALID,0.105969,VALID,23.9065,VALID,99,VALID,0,
2010-08-01, 00:50:04,VALID,1011.86,VALID,0,VALID,102.62,VALID,0.105969,VALID,23.926,VALID,103,VALID,0.346875,
2010-08-01, 00:51:04,VALID,1011.84,VALID,0,VALID,102.65,VALID,0.105969,VALID,23.926,VALID,117,VALID,0.767969,
2010-08-01, 00:52:04,VALID,1011.83,VALID,0,VALID,102.643,VALID,0.105969,VALID,23.9455,VALID,127,VALID,0.762109,
2010-08-01, 00:53:04,VALID,1011.79,VALID,0,VALID,102.658,VALID,0.105969,VALID,23.926,VALID,118,VALID,0.814453,
2010-08-01, 00:54:04,VALID,1011.78,VALID,0,VALID,102.658,VALID,0,VALID,23.9278,VALID,122,VALID,0.89375,
2010-08-01, 00:55:04,VALID,1011.78,VALID,0,VALID,102.635,VALID,0.105969,VALID,23.926,VALID,122,VALID,0.255078,
2010-08-01, 00:56:04,VALID,1011.77,VALID,0,VALID,102.65,VALID,0.105969,VALID,23.926,VALID,142,VALID,1.14766,
2010-08-01, 00:57:04,VALID,1011.78,VALID,0,VALID,102.643,VALID,0.105969,VALID,23.9065,VALID,130,VALID,1.37422,
2010-08-01, 00:58:04,VALID,1011.8,VALID,0,VALID,102.582,VALID,0.105969,VALID,23.9473,VALID,119,VALID,0.705469,
2010-08-01, 00:59:04,VALID,1011.76,VALID,0,VALID,102.582,VALID,0.105969,VALID,23.9065,VALID,130,VALID,1.1,
2010-08-01, 01:00:04,VALID,1011.79,VALID,0,VALID,102.574,VALID,0.105969,VALID,23.9065,VALID,149,VALID,0.987109,
2010-08-01, 01:01:04,VALID,1011.75,VALID,0,VALID,102.559,VALID,0.105969,VALID,23.926,VALID,126,VALID,0.826563,
2010-08-01, 01:02:04,VALID,1011.76,VALID,0,VALID,102.551,VALID,0.105969,VALID,23.9278,VALID,108,VALID,0.853906,
2010-08-01, 01:03:04,VALID,1011.73,VALID,0,VALID,102.544,VALID,0.105969,VALID,23.9065,VALID,87,VALID,0.7375,
2010-08-01, 01:04:04,VALID,1011.75,VALID,0,VALID,102.566,VALID,0.105969,VALID,23.9278,VALID,103,VALID,0.91875,
2010-08-01, 01:05:04,VALID,1011.75,VALID,0,VALID,102.49,VALID,0,VALID,23.9278,VALID,115,VALID,0.565625,
2010-08-01, 01:06:04,VALID,1011.74,VALID,0,VALID,102.475,VALID,0.105969,VALID,23.926,VALID,105,VALID,0.75,
2010-08-01, 01:07:04,VALID,1011.74,VALID,0,VALID,102.475,VALID,0,VALID,23.926,VALID,107,VALID,0.477734,
2010-08-01, 01:08:04,VALID,1011.73,VALID,0,VALID,102.505,VALID,0.105969,VALID,23.926,VALID,119,VALID,1.08164,
2010-08-01, 01:09:04,VALID,1011.72,VALID,0,VALID,102.475,VALID,0.105969,VALID,23.926,VALID,101,VALID,0.813281,
2010-08-01, 01:10:04,VALID,1011.72,VALID,0,VALID,102.444,VALID,0.105969,VALID,23.9473,VALID,89,VALID,0.757422,
2010-08-01, 01:11:04,VALID,1011.73,VALID,0,VALID,102.437,VALID,0.105969,VALID,23.9473,VALID,91,VALID,1.08906,
2010-08-01, 01:12:04,VALID,1011.75,VALID,0,VALID,102.444,VALID,0.105969,VALID,23.9455,VALID,102,VALID,1.42539,
2010-08-01, 01:13:04,VALID,1011.72,VALID,0,VALID,102.421,VALID,0.105969,VALID,23.926,VALID,119,VALID,0.947266,
2010-08-01, 01:14:04,VALID,1011.74,VALID,0,VALID,102.414,VALID,0.105969,VALID,23.9455,VALID,110,VALID,0.886328,
2010-08-01, 01:15:04,VALID,1011.71,VALID,0,VALID,102.376,VALID,0,VALID,23.9473,VALID,119,VALID,1.18398,
2010-08-01, 01:16:04,VALID,1011.75,VALID,0,VALID,102.36,VALID,0.105969,VALID,23.9455,VALID,109,VALID,0.4875,
2010-08-01, 01:17:04,VALID,1011.72,VALID,0,VALID,102.368,VALID,0.105969,VALID,23.926,VALID,111,VALID,1.14258,
2010-08-01, 01:18:04,VALID,1011.73,VALID,0,VALID,102.322,VALID,0.105969,VALID,23.926,VALID,128,VALID,1.08867,
2010-08-01, 01:19:04,VALID,1011.73,VALID,0,VALID,102.338,VALID,0.105969,VALID,23.9455,VALID,103,VALID,0.829297,
2010-08-01, 01:20:04,VALID,1011.7,VALID,0,VALID,102.345,VALID,0,VALID,23.9473,VALID,110,VALID,1.55234,
2010-08-01, 01:21:04,VALID,1011.71,VALID,0,VALID,102.353,VALID,0,VALID,23.9473,VALID,111,VALID,1.075,
2010-08-01, 01:22:04,VALID,1011.67,VALID,0,VALID,102.368,VALID,0,VALID,23.9668,VALID,106,VALID,0.765625,
2010-08-01, 01:23:04,VALID,1011.68,VALID,0,VALID,102.391,VALID,0,VALID,23.9473,VALID,84,VALID,1.36055,
2010-08-01, 01:24:04,VALID,1011.67,VALID,0,VALID,102.406,VALID,0,VALID,23.9668,VALID,99,VALID,1.21758,
2010-08-01, 01:25:04,VALID,1011.66,VALID,0,VALID,102.414,VALID,0,VALID,23.9881,VALID,80,VALID,1.12422,
2010-08-01, 01:26:04,VALID,1011.67,VALID,0,VALID,102.429,VALID,0,VALID,23.9473,VALID,109,VALID,1.44062,
2010-08-01, 01:27:04,VALID,1011.64,VALID,0,VALID,102.452,VALID,0,VALID,23.9473,VALID,73,VALID,1.26523,
2010-08-01, 01:28:04,VALID,1011.64,VALID,0,VALID,102.429,VALID,0,VALID,23.9686,VALID,77,VALID,1.18555,
2010-08-01, 01:29:04,VALID,1011.62,VALID,0,VALID,102.46,VALID,0,VALID,23.9473,VALID,84,VALID,0.958984,
2010-08-01, 01:30:04,VALID,1011.63,VALID,0,VALID,102.467,VALID,0,VALID,23.9278,VALID,115,VALID,0.996484,
2010-08-01, 01:31:05,VALID,1011.62,VALID,0,VALID,102.498,VALID,0,VALID,23.9278,VALID,70,VALID,1.04414,
2010-08-01, 01:32:05,VALID,1011.6,VALID,0,VALID,102.475,VALID,0,VALID,23.9084,VALID,89,VALID,1.30742,
2010-08-01, 01:33:05,VALID,1011.6,VALID,0,VALID,102.475,VALID,0,VALID,23.8889,VALID,86,VALID,1.07891,
2010-08-01, 01:34:05,VALID,1011.58,VALID,0,VALID,102.467,VALID,0,VALID,23.9084,VALID,83,VALID,1.09766,
2010-08-01, 01:35:05,VALID,1011.59,VALID,0,VALID,102.49,VALID,0,VALID,23.8889,VALID,112,VALID,1.55547,
2010-08-01, 01:36:05,VALID,1011.57,VALID,0,VALID,102.551,VALID,0,VALID,23.9084,VALID,116,VALID,1.05195,
2010-08-01, 01:37:05,VALID,1011.57,VALID,0,VALID,102.559,VALID,0,VALID,23.8889,VALID,101,VALID,1.13281,
2010-08-01, 01:38:05,VALID,1011.55,VALID,0,VALID,102.559,VALID,0,VALID,23.8889,VALID,101,VALID,1.55586,
2010-08-01, 01:39:05,VALID,1011.53,VALID,0,VALID,102.574,VALID,0,VALID,23.9084,VALID,111,VALID,0.967578,
2010-08-01, 01:40:05,VALID,1011.55,VALID,0,VALID,102.589,VALID,0,VALID,23.9102,VALID,107,VALID,0.735547,
2010-08-01, 01:41:05,VALID,1011.54,VALID,0,VALID,102.597,VALID,0,VALID,23.8889,VALID,107,VALID,1.50859,
2010-08-01, 01:42:05,VALID,1011.55,VALID,0,VALID,102.589,VALID,0,VALID,23.8889,VALID,91,VALID,1.36719,
2010-08-01, 01:43:05,VALID,1011.54,VALID,0,VALID,102.574,VALID,0,VALID,23.8889,VALID,97,VALID,1.92031,
2010-08-01, 01:44:05,VALID,1011.5,VALID,0,VALID,102.597,VALID,0,VALID,23.8889,VALID,110,VALID,1.7125,
2010-08-01, 01:45:05,VALID,1011.53,VALID,0,VALID,102.566,VALID,0,VALID,23.8889,VALID,105,VALID,1.09063,
2010-08-01, 01:46:05,VALID,1011.52,VALID,0,VALID,102.559,VALID,0,VALID,23.8694,VALID,75,VALID,1.35391,
2010-08-01, 01:47:05,VALID,1011.5,VALID,0,VALID,102.559,VALID,0,VALID,23.8889,VALID,90,VALID,1.11836,
2010-08-01, 01:48:05,VALID,1011.49,VALID,0,VALID,102.559,VALID,0,VALID,23.8694,VALID,108,VALID,1.18438,
2010-08-01, 01:49:05,VALID,1011.51,VALID,0,VALID,102.589,VALID,0,VALID,23.8694,VALID,91,VALID,1.54258,
2010-08-01, 01:50:05,VALID,1011.5,VALID,0,VALID,102.605,VALID,0,VALID,23.8676,VALID,105,VALID,1.43086,
2010-08-01, 01:51:05,VALID,1011.51,VALID,0,VALID,102.627,VALID,0,VALID,23.8481,VALID,106,VALID,1.67109,
2010-08-01, 01:52:05,VALID,1011.47,VALID,0,VALID,102.643,VALID,0.105969,VALID,23.8889,VALID,96,VALID,0.908203,
2010-08-01, 01:53:05,VALID,1011.44,VALID,0,VALID,102.65,VALID,0.105969,VALID,23.8676,VALID,111,VALID,1.01875,
2010-08-01, 01:54:05,VALID,1011.44,VALID,0,VALID,102.688,VALID,0.105969,VALID,23.8481,VALID,102,VALID,1.29688,
2010-08-01, 01:55:05,VALID,1011.43,VALID,0,VALID,102.681,VALID,0.105969,VALID,23.8286,VALID,83,VALID,1.31602,
2010-08-01, 01:56:05,VALID,1011.39,VALID,0,VALID,102.688,VALID,0.105969,VALID,23.8286,VALID,74,VALID,1.42188,
2010-08-01, 01:57:05,VALID,1011.39,VALID,0,VALID,102.688,VALID,0,VALID,23.8091,VALID,85,VALID,1.25781,
2010-08-01, 01:58:05,VALID,1011.36,VALID,0,VALID,102.681,VALID,0.105969,VALID,23.7896,VALID,122,VALID,1.11602,
2010-08-01, 01:59:05,VALID,1011.34,VALID,0,VALID,102.704,VALID,0.105969,VALID,23.7878,VALID,101,VALID,0.856641,
2010-08-01, 02:00:05,VALID,1011.33,VALID,0,VALID,102.711,VALID,0,VALID,23.7683,VALID,87,VALID,1.34063,
2010-08-01, 02:01:05,VALID,1011.33,VALID,0,VALID,102.727,VALID,0.105969,VALID,23.7896,VALID,91,VALID,1.19414,
2010-08-01, 02:02:05,VALID,1011.32,VALID,0,VALID,102.734,VALID,0,VALID,23.7896,VALID,89,VALID,1.17461,
2010-08-01, 02:03:05,VALID,1011.28,VALID,0,VALID,102.734,VALID,0,VALID,23.7896,VALID,87,VALID,1.7582,
2010-08-01, 02:04:05,VALID,1011.25,VALID,0,VALID,102.749,VALID,0,VALID,23.8109,VALID,87,VALID,1.03359,
2010-08-01, 02:05:05,VALID,1011.25,VALID,0,VALID,102.757,VALID,0,VALID,23.7896,VALID,94,VALID,1.64297,
2010-08-01, 02:06:05,VALID,1011.23,VALID,0,VALID,102.742,VALID,0,VALID,23.8091,VALID,107,VALID,2.15937,
2010-08-01, 02:07:05,VALID,1011.21,VALID,0,VALID,102.734,VALID,0,VALID,23.7896,VALID,102,VALID,1.40313,
2010-08-01, 02:08:05,VALID,1011.2,VALID,0,VALID,102.742,VALID,0,VALID,23.7896,VALID,109,VALID,1.37227,
2010-08-01, 02:09:05,VALID,1011.2,VALID,0,VALID,102.749,VALID,0,VALID,23.8091,VALID,119,VALID,1.44766,
2010-08-01, 02:10:05,VALID,1011.18,VALID,0,VALID,102.765,VALID,0.105969,VALID,23.8091,VALID,82,VALID,1.07773,
2010-08-01, 02:11:05,VALID,1011.21,VALID,0,VALID,102.742,VALID,0,VALID,23.8091,VALID,103,VALID,1.41406,
2010-08-01, 02:12:05,VALID,1011.18,VALID,0,VALID,102.765,VALID,0.105969,VALID,23.8091,VALID,87,VALID,1.40508,
2010-08-01, 02:13:05,VALID,1011.19,VALID,0,VALID,102.765,VALID,0.105969,VALID,23.8091,VALID,101,VALID,1.26875,
2010-08-01, 02:14:05,VALID,1011.19,VALID,0,VALID,102.757,VALID,0.105969,VALID,23.8091,VALID,90,VALID,1.79766,
2010-08-01, 02:15:05,VALID,1011.19,VALID,0,VALID,102.742,VALID,0,VALID,23.7896,VALID,110,VALID,1.69609,
2010-08-01, 02:16:05,VALID,1011.19,VALID,0,VALID,102.727,VALID,0,VALID,23.7896,VALID,97,VALID,1.4293,
2010-08-01, 02:17:05,VALID,1011.17,VALID,0,VALID,102.727,VALID,0.105969,VALID,23.8091,VALID,113,VALID,0.946875,
2010-08-01, 02:18:05,VALID,1011.16,VALID,0,VALID,102.742,VALID,0,VALID,23.7896,VALID,92,VALID,1.20977,
2010-08-01, 02:19:05,VALID,1011.15,VALID,0,VALID,102.734,VALID,0.105969,VALID,23.7914,VALID,86,VALID,1.70664,
2010-08-01, 02:20:05,VALID,1011.16,VALID,0,VALID,102.719,VALID,0,VALID,23.8109,VALID,101,VALID,1.70898,
2010-08-01, 02:21:05,VALID,1011.15,VALID,0,VALID,102.734,VALID,0,VALID,23.7896,VALID,96,VALID,0.986328,
2010-08-01, 02:22:05,VALID,1011.12,VALID,0,VALID,102.734,VALID,0,VALID,23.7701,VALID,82,VALID,2.08555,
2010-08-01, 02:23:05,VALID,1011.1,VALID,0,VALID,102.719,VALID,0.105969,VALID,23.7701,VALID,79,VALID,1.98086,
2010-08-01, 02:24:05,VALID,1011.13,VALID,0,VALID,102.749,VALID,0,VALID,23.7701,VALID,104,VALID,1.83398,
2010-08-01, 02:25:05,VALID,1011.11,VALID,0,VALID,102.727,VALID,0,VALID,23.7507,VALID,99,VALID,1.68672,
2010-08-01, 02:26:05,VALID,1011.1,VALID,0,VALID,102.742,VALID,0,VALID,23.7701,VALID,82,VALID,1.16914,
2010-08-01, 02:27:05,VALID,1011.09,VALID,0,VALID,102.734,VALID,0.105969,VALID,23.7507,VALID,87,VALID,1.62344,
2010-08-01, 02:28:05,VALID,1011.07,VALID,0,VALID,102.749,VALID,0,VALID,23.7507,VALID,70,VALID,1.9,
2010-08-01, 02:29:05,VALID,1011.05,VALID,0,VALID,102.757,VALID,0,VALID,23.7525,VALID,106,VALID,1.39688,
2010-08-01, 02:30:05,VALID,1011.04,VALID,0,VALID,102.772,VALID,0.105969,VALID,23.7312,VALID,67,VALID,1.73516,
2010-08-01, 02:31:05,VALID,1011.04,VALID,0,VALID,102.765,VALID,0.105969,VALID,23.7312,VALID,99,VALID,1.67109,
2010-08-01, 02:32:05,VALID,1011.05,VALID,0,VALID,102.772,VALID,0.105969,VALID,23.7117,VALID,65,VALID,1.62148,
2010-08-01, 02:33:05,VALID,1011,VALID,0,VALID,102.757,VALID,0,VALID,23.733,VALID,76,VALID,1.3957,
2010-08-01, 02:34:05,VALID,1011.02,VALID,0,VALID,102.749,VALID,0.105969,VALID,23.7312,VALID,84,VALID,1.43242,
2010-08-01, 02:35:05,VALID,1011.04,VALID,0,VALID,102.765,VALID,0,VALID,23.7135,VALID,84,VALID,1.91406,
2010-08-01, 02:36:05,VALID,1011.06,VALID,0,VALID,102.78,VALID,0,VALID,23.7135,VALID,95,VALID,1.72773,
2010-08-01, 02:37:05,VALID,1011.06,VALID,0,VALID,102.803,VALID,0,VALID,23.7135,VALID,89,VALID,1.88945,
2010-08-01, 02:38:05,VALID,1011.07,VALID,0,VALID,102.795,VALID,0,VALID,23.694,VALID,79,VALID,2.07578,
2010-08-01, 02:39:05,VALID,1011.05,VALID,0,VALID,102.803,VALID,0,VALID,23.7135,VALID,100,VALID,1.28203,
2010-08-01, 02:40:05,VALID,1011.07,VALID,0,VALID,102.788,VALID,0,VALID,23.7135,VALID,80,VALID,1.01211,
2010-08-01, 02:41:05,VALID,1011.04,VALID,0,VALID,102.803,VALID,0,VALID,23.694,VALID,85,VALID,1.61992,
2010-08-01, 02:42:05,VALID,1011.05,VALID,0,VALID,102.803,VALID,0,VALID,23.694,VALID,101,VALID,1.94609,
2010-08-01, 02:43:05,VALID,1011.07,VALID,0,VALID,102.818,VALID,0,VALID,23.694,VALID,90,VALID,2.15937,
2010-08-01, 02:44:05,VALID,1011.04,VALID,0,VALID,102.795,VALID,0,VALID,23.694,VALID,83,VALID,1.92539,
2010-08-01, 02:45:05,VALID,1011.03,VALID,0,VALID,102.803,VALID,0,VALID,23.7135,VALID,84,VALID,1.54648,
2010-08-01, 02:46:05,VALID,1011.01,VALID,0,VALID,102.826,VALID,0,VALID,23.694,VALID,106,VALID,1.48203,
2010-08-01, 02:47:05,VALID,1011.01,VALID,0,VALID,102.795,VALID,0,VALID,23.7135,VALID,114,VALID,1.86328,
2010-08-01, 02:48:05,VALID,1011,VALID,0,VALID,102.818,VALID,0,VALID,23.7135,VALID,105,VALID,1.37031,
2010-08-01, 02:49:05,VALID,1010.97,VALID,0,VALID,102.818,VALID,0,VALID,23.733,VALID,96,VALID,0.855859,
2010-08-01, 02:50:05,VALID,1010.97,VALID,0,VALID,102.826,VALID,0,VALID,23.7135,VALID,114,VALID,1.75937,
2010-08-01, 02:51:05,VALID,1010.94,VALID,0,VALID,102.803,VALID,0,VALID,23.694,VALID,108,VALID,1.92852,
2010-08-01, 02:52:05,VALID,1010.95,VALID,0,VALID,102.788,VALID,0,VALID,23.7348,VALID,99,VALID,1.49727,
2010-08-01, 02:53:05,VALID,1010.91,VALID,0,VALID,102.78,VALID,0,VALID,23.7348,VALID,97,VALID,0.453516,
2010-08-01, 02:54:05,VALID,1010.9,VALID,0,VALID,102.772,VALID,0,VALID,23.7348,VALID,106,VALID,1.10742,
2010-08-01, 02:55:05,VALID,1010.88,VALID,0,VALID,102.772,VALID,0,VALID,23.7135,VALID,75,VALID,0.979297,
2010-08-01, 02:56:05,VALID,1010.86,VALID,0,VALID,102.757,VALID,0,VALID,23.694,VALID,105,VALID,1.61445,
2010-08-01, 02:57:05,VALID,1010.87,VALID,0,VALID,102.757,VALID,0,VALID,23.694,VALID,103,VALID,1.37891,
2010-08-01, 02:58:05,VALID,1010.83,VALID,0,VALID,102.734,VALID,0,VALID,23.694,VALID,84,VALID,0.771484,
2010-08-01, 02:59:05,VALID,1010.8,VALID,0,VALID,102.749,VALID,0,VALID,23.694,VALID,95,VALID,0.826563,
2010-08-01, 03:00:05,VALID,1010.78,VALID,0,VALID,102.742,VALID,0,VALID,23.694,VALID,103,VALID,0.581641,
2010-08-01, 03:01:05,VALID,1010.77,VALID,0,VALID,102.757,VALID,0,VALID,23.6745,VALID,105,VALID,1.28633,
2010-08-01, 03:02:05,VALID,1010.76,VALID,0,VALID,102.749,VALID,0,VALID,23.6958,VALID,88,VALID,0.634375,
2010-08-01, 03:03:05,VALID,1010.73,VALID,0,VALID,102.734,VALID,0,VALID,23.6958,VALID,104,VALID,1.03008,
2010-08-01, 03:04:05,VALID,1010.74,VALID,0,VALID,102.719,VALID,0,VALID,23.6745,VALID,110,VALID,0.766797,
2010-08-01, 03:05:05,VALID,1010.72,VALID,0,VALID,102.711,VALID,0.105969,VALID,23.694,VALID,123,VALID,0.810938,
2010-08-01, 03:06:05,VALID,1010.74,VALID,0,VALID,102.711,VALID,0,VALID,23.6727,VALID,104,VALID,1.46992,
2010-08-01, 03:07:05,VALID,1010.74,VALID,0,VALID,102.688,VALID,0,VALID,23.6727,VALID,103,VALID,1.62383,
2010-08-01, 03:08:05,VALID,1010.73,VALID,0,VALID,102.65,VALID,0,VALID,23.694,VALID,103,VALID,1.22148,
2010-08-01, 03:09:05,VALID,1010.71,VALID,0,VALID,102.605,VALID,0,VALID,23.7135,VALID,91,VALID,1.14766,
2010-08-01, 03:10:05,VALID,1010.69,VALID,0,VALID,102.597,VALID,0,VALID,23.7117,VALID,108,VALID,0.712891,
2010-08-01, 03:11:05,VALID,1010.68,VALID,0,VALID,102.551,VALID,0,VALID,23.6922,VALID,101,VALID,1.26367,
2010-08-01, 03:12:05,VALID,1010.69,VALID,0,VALID,102.482,VALID,0,VALID,23.6922,VALID,86,VALID,1.37812,
2010-08-01, 03:13:05,VALID,1010.72,VALID,0,VALID,102.444,VALID,0.105969,VALID,23.6922,VALID,111,VALID,1.24922,
2010-08-01, 03:14:05,VALID,1010.7,VALID,0,VALID,102.421,VALID,0,VALID,23.7135,VALID,121,VALID,0.570703,
2010-08-01, 03:15:05,VALID,1010.69,VALID,0,VALID,102.414,VALID,0.105969,VALID,23.6727,VALID,107,VALID,0.970312,
2010-08-01, 03:16:05,VALID,1010.68,VALID,0,VALID,102.368,VALID,0,VALID,23.6727,VALID,84,VALID,1.28594,
2010-08-01, 03:17:05,VALID,1010.67,VALID,0,VALID,102.353,VALID,0,VALID,23.6727,VALID,83,VALID,1.11133,
2010-08-01, 03:18:05,VALID,1010.68,VALID,0,VALID,102.299,VALID,0.105969,VALID,23.694,VALID,101,VALID,1.18984,
2010-08-01, 03:19:05,VALID,1010.68,VALID,0,VALID,102.246,VALID,0,VALID,23.694,VALID,100,VALID,1.39844,
2010-08-01, 03:20:05,VALID,1010.7,VALID,0,VALID,102.246,VALID,0,VALID,23.6745,VALID,87,VALID,0.940234,
2010-08-01, 03:21:05,VALID,1010.72,VALID,0,VALID,102.269,VALID,0,VALID,23.6745,VALID,112,VALID,0.750781,
2010-08-01, 03:22:05,VALID,1010.72,VALID,0,VALID,102.246,VALID,0,VALID,23.6958,VALID,93,VALID,1.18477,
2010-08-01, 03:23:05,VALID,1010.72,VALID,0,VALID,102.208,VALID,0,VALID,23.6745,VALID,112,VALID,0.957031,
2010-08-01, 03:24:05,VALID,1010.74,VALID,0,VALID,102.216,VALID,0,VALID,23.6958,VALID,99,VALID,0.424219,
2010-08-01, 03:25:05,VALID,1010.73,VALID,0,VALID,102.269,VALID,0,VALID,23.655,VALID,96,VALID,0.658594,
2010-08-01, 03:26:05,VALID,1010.74,VALID,0,VALID,102.208,VALID,0,VALID,23.6356,VALID,88,VALID,1.25117,
2010-08-01, 03:27:05,VALID,1010.77,VALID,0,VALID,102.208,VALID,0,VALID,23.6356,VALID,76,VALID,0.797266,
2010-08-01, 03:28:05,VALID,1010.74,VALID,0,VALID,102.231,VALID,0,VALID,23.6356,VALID,128,VALID,0.367969,
2010-08-01, 03:29:05,VALID,1010.76,VALID,0,VALID,102.277,VALID,0,VALID,23.6568,VALID,89,VALID,0.884375,
2010-08-01, 03:30:05,VALID,1010.75,VALID,0,VALID,102.261,VALID,0,VALID,23.6373,VALID,85,VALID,0.738672,
2010-08-01, 03:31:05,VALID,1010.75,VALID,0,VALID,102.284,VALID,0,VALID,23.6179,VALID,110,VALID,0.836719,
2010-08-01, 03:32:05,VALID,1010.76,VALID,0,VALID,102.299,VALID,0,VALID,23.6161,VALID,112,VALID,0.9875,
2010-08-01, 03:33:05,VALID,1010.77,VALID,0,VALID,102.292,VALID,0,VALID,23.6373,VALID,105,VALID,0.791406,
2010-08-01, 03:34:05,VALID,1010.76,VALID,0,VALID,102.315,VALID,0,VALID,23.6373,VALID,102,VALID,0.762891,
2010-08-01, 03:35:05,VALID,1010.76,VALID,0,VALID,102.345,VALID,0.105969,VALID,23.6356,VALID,106,VALID,0.573828,
2010-08-01, 03:36:05,VALID,1010.78,VALID,0,VALID,102.36,VALID,0,VALID,23.6143,VALID,112,VALID,0.516406,
2010-08-01, 03:37:05,VALID,1010.78,VALID,0,VALID,102.383,VALID,0,VALID,23.6356,VALID,118,VALID,0.873828,
2010-08-01, 03:38:05,VALID,1010.76,VALID,0,VALID,102.338,VALID,0,VALID,23.6161,VALID,123,VALID,0.959375,
2010-08-01, 03:39:05,VALID,1010.79,VALID,0,VALID,102.353,VALID,0,VALID,23.6161,VALID,113,VALID,0.843359,
2010-08-01, 03:40:05,VALID,1010.81,VALID,0,VALID,102.315,VALID,0,VALID,23.5948,VALID,108,VALID,0.85625,
2010-08-01, 03:41:05,VALID,1010.8,VALID,0,VALID,102.277,VALID,0,VALID,23.6161,VALID,132,VALID,1.09453,
2010-08-01, 03:42:05,VALID,1010.81,VALID,0,VALID,102.299,VALID,0.105969,VALID,23.6161,VALID,124,VALID,1.50664,